Powrót do katalogu

STARLINK-6049

AktywnyŁącznośćVLEO
NORAD 56796·PAYLOAD·🇺🇸 United States

Wystrzelony May 31, 2023 z Vandenberg Space Force Base

Loading…

Następne Przeloty (najbliższe 24 godziny)

TLE

ŚwieżeSource: CelesTrak SupGP

Epoka: Sep 14, 2026, 14:44 UTC

1 56796C 23078AF  26257.61437500 -.00037871  00000+0 -31741-2 0  2573
2 56796  70.0011 228.2060 0003667 267.4653 207.1860 14.98343097    12

Śledź STARLINK-6049 w czasie rzeczywistym z AllMySat

Download on the App Store